Laredo, TX (78042)

4:27 PM CDT on July 29, 2015 (GMT -0500)
Laredo International | | Change Station
CLOSE
Current Station
Airport
Location: Laredo,
Elevation: 509 ft
Nearby Weather Stations

Elev 509 ft 27.54 °N, 99.46 °W | Updated 31 minutes ago

Clear
Clear
104 °F
Feels Like 104 °F
N
15
Wind Variable Wind from ESE
Gusts 24 mph

Today
High -- | Low -- °F
--% Chance of Precip.
Yesterday
High -- | Low -- °F
Precip. -- in
6:59 AM 8:28 PM
Waxing Gibbous, 97% visible
Pressure 29.92 in
Visibility 10.0 miles
Clouds Clear
Heat Index 104 °F
Dew Point 58 °F
Humidity 22%
Rainfall 0.00 in
Snow Depth Not available.
UV 9 out of 12
Pollen 6.90 out of 12
Air Quality Not available.
Flu Activity Not available.
METAR KLRD 292056Z 12013G21KT 090V180 10SM CLR 40/14 A2995 RMK AO2 56016 T04000144 SLP130

More Conditions Fewer Conditions

Pressure 29.92 in
Visibility 10.0 miles
Clouds Clear
Heat Index 104 °F
Dew Point 58 °F
Humidity 22%
Rainfall 0.00 in
Snow Depth Not available.
UV 9 out of 12
Pollen 6.90 out of 12
Air Quality Not available.
Flu Activity Not available.
METAR KLRD 292056Z 12013G21KT 090V180 10SM CLR 40/14 A2995 RMK AO2 56016 T04000144 SLP130

More Conditions Fewer Conditions

10-Day Weather Forecast

×

Almanac

Astronomy

Jul. 29, 2015 Rise Set
Actual Time
Civil Twilight
Nautical Twilight
Astronomical Twilight
Moon
Length of Visible Light
Length of Day
Tomorrow will be .
, % of the Moon is Illuminated

Today's Extremes

State Highs State Lows

Community

WunderPhotos

Upload Photos

1,842,159 photos uploaded!

WunderBlogs® & News

Nearby

Air Quality

  Air Quality AQ Index Pollutant
Not available.

Snow Depth

Station Depth Elevation

Earthquake Activity

City Distance Mag. Time & Date
Minimum magnitude displayed is 2.5.

Coastal Water Temperatures

Place Temperature

Stations

Nearby Weather Stations

Station Location Temp. Windchill Dew Point Humidity Wind Precip. Elev Updated Type